• In Hungary
  • List of Countries
  • For 7 days
  • Water Temperature
  • Satellite Maps
  • Weather Map
  • News
  • Weather Widgets
  • user-avatar
    Login

    Hourly Weather Mostoles

    Today, 15 November, Thursday

    Time Temperature Precipitation Wind Pressure Humidity
    00:00 +12°C° 0 mm 4 mps 704 mmHg 85%
    01:00 +12°C° 0 mm 3 mps 703 mmHg 86%
    02:00 +11°C° 0 mm 3 mps 703 mmHg 86%
    03:00 +11°C° 0 mm 3 mps 703 mmHg 87%
    04:00 +11°C° 0 mm 3 mps 703 mmHg 87%
    05:00 +11°C° 0 mm 3 mps 703 mmHg 87%
    06:00 +11°C° 0 mm 3 mps 703 mmHg 88%
    07:00 +11°C° 0 mm 3 mps 703 mmHg 85%
    08:00 +12°C° 0 mm 3 mps 703 mmHg 83%
    09:00 +12°C° 0 mm 4 mps 703 mmHg 80%
    10:00 +13°C° 0 mm 4 mps 703 mmHg 75%
    11:00 +14°C° 0 mm 4 mps 703 mmHg 70%
    12:00 +17°C° 0 mm 3 mps 703 mmHg 64%
    13:00 +17°C° 0 mm 3 mps 703 mmHg 63%
    14:00 +17°C° 0 mm 3 mps 703 mmHg 61%
    15:00 +17°C° 0 mm 3 mps 703 mmHg 60%
    16:00 +16°C° 0 mm 3 mps 703 mmHg 64%
    17:00 +14°C° 0 mm 3 mps 703 mmHg 68%
    18:00 +14°C° 0 mm 2 mps 703 mmHg 72%
    19:00 +14°C° 0 mm 2 mps 703 mmHg 73%
    20:00 +14°C° 0 mm 2 mps 704 mmHg 75%
    21:00 +13°C° 0 mm 2 mps 704 mmHg 76%
    22:00 +13°C° 0 mm 2 mps 704 mmHg 77%
    23:00 +13°C° 0 mm 2 mps 704 mmHg 79%

    Tomorrow, 16 November, Friday

    Time Temperature Precipitation Wind Pressure Humidity
    00:00 +13°C° 0 mm 2 mps 704 mmHg 80%
    01:00 +12°C° 0 mm 2 mps 704 mmHg 82%
    02:00 +12°C° 0 mm 2 mps 704 mmHg 83%
    03:00 +12°C° 0 mm 2 mps 703 mmHg 85%
    04:00 +10°C° 0 mm 2 mps 703 mmHg 86%
    05:00 +10°C° 0 mm 2 mps 703 mmHg 86%
    06:00 +10°C° 0 mm 2 mps 703 mmHg 86%
    07:00 +12°C° 0 mm 2 mps 703 mmHg 82%
    08:00 +12°C° 0 mm 3 mps 704 mmHg 78%
    09:00 +12°C° 0 mm 3 mps 704 mmHg 75%
    10:00 +13°C° 0 mm 3 mps 704 mmHg 70%
    11:00 +14°C° 0 mm 3 mps 704 mmHg 66%
    12:00 +16°C° 0 mm 3 mps 704 mmHg 62%
    13:00 +17°C° 0 mm 3 mps 703 mmHg 61%
    14:00 +17°C° 0 mm 3 mps 703 mmHg 60%
    15:00 +17°C° 0 mm 3 mps 702 mmHg 59%
    16:00 +16°C° 0.1 mm 3 mps 702 mmHg 64%
    17:00 +14°C° 0.1 mm 3 mps 702 mmHg 68%
    18:00 +13°C° 0.1 mm 3 mps 702 mmHg 73%
    19:00 +13°C° 0 mm 3 mps 703 mmHg 75%
    20:00 +12°C° 0 mm 3 mps 703 mmHg 77%
    21:00 +12°C° 0 mm 3 mps 703 mmHg 79%
    22:00 +12°C° 0 mm 3 mps 703 mmHg 81%
    23:00 +12°C° 0 mm 3 mps 702 mmHg 83%

    Day after tomorrow, 17 November, Saturday

    Time Temperature Precipitation Wind Pressure Humidity
    00:00 +11°C° 0 mm 3 mps 702 mmHg 85%
    01:00 +11°C° 0 mm 3 mps 702 mmHg 86%
    02:00 +11°C° 0 mm 3 mps 702 mmHg 87%
    03:00 +11°C° 0 mm 3 mps 702 mmHg 88%
    04:00 +11°C° 0 mm 3 mps 702 mmHg 88%
    05:00 +10°C° 0 mm 3 mps 702 mmHg 89%
    06:00 +10°C° 0 mm 3 mps 702 mmHg 89%
    07:00 +11°C° 0 mm 3 mps 702 mmHg 86%
    08:00 +11°C° 0 mm 3 mps 702 mmHg 84%
    09:00 +12°C° 0 mm 3 mps 702 mmHg 81%
    10:00 +12°C° 0 mm 3 mps 701 mmHg 78%
    11:00 +13°C° 0 mm 3 mps 701 mmHg 74%
    12:00 +14°C° 0 mm 3 mps 700 mmHg 70%
    13:00 +14°C° 0 mm 3 mps 700 mmHg 68%
    14:00 +14°C° 0 mm 3 mps 699 mmHg 67%
    15:00 +16°C° 0 mm 3 mps 699 mmHg 65%
    16:00 +14°C° 0 mm 3 mps 699 mmHg 69%
    17:00 +13°C° 0 mm 3 mps 698 mmHg 74%
    18:00 +12°C° 0 mm 3 mps 698 mmHg 78%
    19:00 +11°C° 0 mm 3 mps 698 mmHg 80%
    20:00 +11°C° 0 mm 3 mps 698 mmHg 81%
    21:00 +11°C° 0 mm 4 mps 698 mmHg 83%
    22:00 +11°C° 0 mm 4 mps 697 mmHg 84%
    23:00 +11°C° 0 mm 4 mps 697 mmHg 85%

    18 November, Sunday

    Time Temperature Precipitation Wind Pressure Humidity
    00:00 +10°C° 0 mm 4 mps 697 mmHg 86%
    01:00 +10°C° 0.1 mm 4 mps 696 mmHg 86%
    02:00 +10°C° 0.1 mm 4 mps 696 mmHg 86%
    03:00 +10°C° 0.1 mm 4 mps 695 mmHg 85%
    04:00 +10°C° 0.4 mm 4 mps 695 mmHg 86%
    05:00 +10°C° 0.4 mm 4 mps 695 mmHg 86%
    06:00 +10°C° 0.4 mm 4 mps 694 mmHg 87%
    07:00 +10°C° 1.1 mm 4 mps 694 mmHg 87%
    08:00 +10°C° 1.1 mm 4 mps 694 mmHg 88%
    09:00 +10°C° 1.1 mm 4 mps 695 mmHg 88%
    10:00 +11°C° 1 mm 4 mps 694 mmHg 86%
    11:00 +11°C° 1 mm 4 mps 694 mmHg 84%
    12:00 +11°C° 1 mm 4 mps 694 mmHg 82%
    13:00 +12°C° 0.6 mm 4 mps 694 mmHg 79%
    14:00 +12°C° 0.6 mm 4 mps 694 mmHg 76%
    15:00 +12°C° 0.6 mm 3 mps 693 mmHg 73%
    16:00 +11°C° 0.2 mm 3 mps 693 mmHg 77%
    17:00 +11°C° 0.2 mm 3 mps 693 mmHg 81%
    18:00 +10°C° 0.2 mm 3 mps 693 mmHg 85%
    19:00 +10°C° 0.1 mm 3 mps 693 mmHg 86%
    20:00 +9°C° 0.1 mm 3 mps 693 mmHg 88%
    21:00 +9°C° 0.1 mm 3 mps 694 mmHg 90%
    22:00 +9°C° 0.1 mm 3 mps 693 mmHg 90%
    23:00 +9°C° 0.1 mm 3 mps 693 mmHg 90%

    19 November, Monday

    Time Temperature Precipitation Wind Pressure Humidity
    00:00 +9°C° 0.1 mm 3 mps 693 mmHg 90%
    01:00 +9°C° 0.1 mm 3 mps 693 mmHg 90%
    02:00 +9°C° 0.1 mm 3 mps 693 mmHg 89%
    03:00 +9°C° 0.1 mm 3 mps 693 mmHg 89%
    04:00 +9°C° 0.1 mm 3 mps 693 mmHg 88%
    05:00 +9°C° 0.1 mm 3 mps 692 mmHg 87%
    06:00 +8°C° 0.1 mm 3 mps 692 mmHg 87%
    07:00 +9°C° 0 mm 3 mps 692 mmHg 84%
    08:00 +10°C° 0 mm 3 mps 693 mmHg 80%
    09:00 +10°C° 0 mm 3 mps 693 mmHg 77%
    10:00 +11°C° 0.3 mm 3 mps 693 mmHg 75%
    11:00 +11°C° 0.3 mm 3 mps 692 mmHg 74%
    12:00 +12°C° 0.3 mm 3 mps 692 mmHg 72%
    13:00 +12°C° 0.9 mm 3 mps 692 mmHg 74%
    14:00 +11°C° 0.9 mm 4 mps 692 mmHg 75%
    15:00 +11°C° 0.9 mm 4 mps 691 mmHg 77%
    16:00 +11°C° 0.5 mm 4 mps 692 mmHg 78%
    17:00 +10°C° 0.5 mm 3 mps 692 mmHg 79%
    18:00 +10°C° 0.5 mm 3 mps 692 mmHg 80%
    19:00 +10°C° 0.3 mm 3 mps 692 mmHg 81%
    20:00 +10°C° 0.3 mm 2 mps 693 mmHg 82%
    21:00 +10°C° 0.3 mm 2 mps 693 mmHg 83%
    22:00 +9°C° 0 mm 2 mps 693 mmHg 83%
    23:00 +9°C° 0 mm 2 mps 694 mmHg 84%

    20 November, Tuesday

    Time Temperature Precipitation Wind Pressure Humidity
    00:00 +9°C° 0 mm 2 mps 694 mmHg 85%
    01:00 +8°C° 0 mm 2 mps 694 mmHg 85%
    02:00 +8°C° 0 mm 2 mps 694 mmHg 85%
    03:00 +8°C° 0 mm 2 mps 694 mmHg 86%
    04:00 +8°C° 0 mm 2 mps 695 mmHg 86%
    05:00 +8°C° 0 mm 2 mps 695 mmHg 86%
    06:00 +7°C° 0 mm 2 mps 695 mmHg 87%
    07:00 +8°C° 0 mm 2 mps 696 mmHg 83%
    08:00 +9°C° 0 mm 2 mps 696 mmHg 79%
    09:00 +10°C° 0 mm 2 mps 697 mmHg 75%
    10:00 +11°C° 0 mm 3 mps 697 mmHg 70%
    11:00 +12°C° 0 mm 4 mps 697 mmHg 64%
    12:00 +14°C° 0 mm 4 mps 697 mmHg 58%
    13:00 +14°C° 0 mm 5 mps 697 mmHg 55%
    14:00 +14°C° 0 mm 5 mps 697 mmHg 53%
    15:00 +14°C° 0 mm 6 mps 697 mmHg 51%
    16:00 +13°C° 0 mm 6 mps 697 mmHg 57%
    17:00 +12°C° 0 mm 5 mps 697 mmHg 63%
    18:00 +10°C° 0 mm 5 mps 697 mmHg 69%
    19:00 +9°C° 0.1 mm 5 mps 698 mmHg 70%
    20:00 +8°C° 0.1 mm 5 mps 698 mmHg 72%
    21:00 +8°C° 0.1 mm 5 mps 698 mmHg 73%
    22:00 +7°C° 0 mm 5 mps 698 mmHg 74%
    23:00 +7°C° 0 mm 4 mps 699 mmHg 75%
    Show more